Location: Spondin
(51.8528°N, 111.6118°W)
Time: 16:53:52
(UTC+00:00)

Vanguard 2 Rocket - Pass Details

Date: 02 June 2022
Orbit: 553 x 3323 km, 32.9° (Epoch: 02 July)

Event Time Altitude Azimuth Distance (km) Brightness Sun altitude
Rises 20:00:57 0° 241° (WSW) 7,089 11.7 59.6°
Reaches altitude 10° 20:06:01 10° 235° (SW) 6,213 11.7 59.3°
Maximum altitude 20:23:37 40° 176° (S) 4,102 11.6 58.3°
Drops below altitude 10° 20:38:10 10° 115° (ESE) 5,189 10.8 57.2°
Sets 20:41:56 0° 108° (ESE) 5,866 10.9 56.9°
